Location: Black Skies Observatory
(44.7549°N, 79.7179°W)
Time: 13:45:52
(UTC-05:00)

Envisat - Pass Details

Date: 03 November 2020
Orbit: 764 x 766 km, 98.1° (Epoch: 01 December)

Event Time Altitude Azimuth Distance (km) Brightness Sun altitude
Rises 05:59:25 0° 17° (NNE) 3,242 6.3 -11.2°
Reaches altitude 10° 06:01:48 10° 22° (NNE) 2,311 5.6 -10.8°
Maximum altitude 06:06:47 54° 100° (E) 925 3.9 -9.9°
Drops below altitude 10° 06:11:44 10° 178° (S) 2,293 5.7 -9.1°
Sets 06:14:04 0° 182° (S) 3,214 6.4 -8.7°
